Weather History for Nuiqsut, AK

Change the Weather History Date:

Sunday, May 19, 2013

  Actual Average (PAKU) Record (PAKU)
Temperature  
Mean Temperature 12 °F -  
Max Temperature 30 °F 26 °F 41 °F (2004)
Min Temperature -6 °F 17 °F -4 °F (2013)
Degree Days  
Heating Degree Days 53    
Moisture  
Dew Point 11 °F    
Average Humidity 81    
Maximum Humidity 88    
Minimum Humidity 73    
Precipitation  
Precipitation 0.11 in - - ()
Sea Level Pressure  
Sea Level Pressure 30.29 in    
Wind  
Wind Speed 13 mph (South)    
Max Wind Speed 17 mph    
Max Gust Speed -    
Visibility 10 miles    
Events      
Averages and records for this station are not official NWS values.
T = Trace of Precipitation, MM = Missing Value Source: NWS Daily Summary

Daily Weather History Graph

Daily Weather History Graph

Search for Another Location

Airport:

Trip Planner

Search our weather history database for the weather conditions in past years. The results will help you decide how hot, cold, wet, or windy it might be!

Date:

Astronomy

May. 19, 2013 Rise Set
Actual Time 2:32 AM AKDT 1:28 AM AKDT
Civil Twilight Sun does not rise Sun does not rise
Nautical Twilight Sun does not rise Sun does not rise
Astronomical Twilight Sun does not rise Sun does not rise
Moon 3:34 PM AKDT (5/19) 3:29 AM AKDT (5/19)
Length of Visible Light 24h 00m
Length of Day
22h 55m
Waxing Gibbous, 66% of the Moon is Illuminated
May 19
Waxing Gibbous
May 24
Full
May 31
Last Quarter
Jun 8
New
Jun 16
First Quarter

Hourly Weather History & Observations

Time (AKDT) Temp. Windchill Dew Point Humidity Pressure Visibility Wind Dir Wind Speed Gust Speed Precip Events Conditions
12:53 AM -4.0 °F -20.2 °F -8.0 °F 83% 30.22 in 10.0 mi SSE 9.2 mph - N/A   Clear
1:53 AM -2.9 °F -21.6 °F -7.1 °F 82% 30.22 in 10.0 mi South 12.7 mph - N/A   Clear
2:53 AM -2.9 °F -21.6 °F -6.0 °F 87% 30.23 in 10.0 mi South 12.7 mph - N/A   Clear
3:53 AM -6.0 °F -23.6 °F -9.0 °F 87% 30.24 in 10.0 mi SSE 10.4 mph - N/A   Clear
4:53 AM -2.9 °F -18.8 °F -7.1 °F 82% 30.25 in 10.0 mi South 9.2 mph - N/A   Clear
5:53 AM 1.0 °F -15.8 °F -5.1 °F 75% 30.25 in 10.0 mi South 11.5 mph - N/A   Clear
6:53 AM 6.1 °F -12.8 °F -0.9 °F 73% 30.26 in 10.0 mi South 17.3 mph - N/A   Overcast
7:53 AM 8.1 °F -9.6 °F 1.9 °F 76% 30.26 in 10.0 mi South 16.1 mph - N/A   Overcast
8:53 AM 10.9 °F -4.7 °F 5.0 °F 77% 30.27 in 10.0 mi South 13.8 mph - N/A   Scattered Clouds
9:53 AM 15.1 °F -1.1 °F 9.0 °F 77% 30.28 in 10.0 mi South 17.3 mph - N/A   Overcast
10:53 AM 17.1 °F 3.0 °F 10.9 °F 77% 30.30 in 10.0 mi South 13.8 mph - N/A   Overcast
11:53 AM 19.0 °F 5.0 °F 14.0 °F 81% 30.30 in 9.0 mi South 15.0 mph - N/A   Clear
12:53 PM 21.9 °F 9.2 °F 16.0 °F 78% 30.31 in 10.0 mi South 13.8 mph - N/A   Clear
1:53 PM 24.1 °F 12.5 °F 18.0 °F 77% 30.32 in 10.0 mi South 12.7 mph - N/A   Clear
2:53 PM 26.1 °F 15.0 °F 19.9 °F 78% 30.32 in 10.0 mi South 12.7 mph - 0.03 in   Clear
3:53 PM 28.0 °F 16.1 °F 21.0 °F 75% 30.32 in 10.0 mi South 16.1 mph - 0.04 in   Clear
4:53 PM 28.0 °F 15.7 °F 21.9 °F 78% 30.32 in 10.0 mi SSE 17.3 mph - 0.02 in   Clear
5:53 PM 28.0 °F 17.0 °F 23.0 °F 81% 30.32 in 10.0 mi SSE 13.8 mph - 0.01 in   Clear
6:53 PM 28.0 °F 17.0 °F 24.1 °F 85% 30.32 in 10.0 mi SSE 13.8 mph - 0.01 in   Mostly Cloudy
7:53 PM 28.9 °F 17.7 °F 25.0 °F 85% 30.32 in 10.0 mi South 15.0 mph - N/A   Overcast
8:53 PM 28.0 °F 16.5 °F 25.0 °F 88% 30.33 in 10.0 mi South 15.0 mph - N/A   Overcast
9:53 PM 30.0 °F 19.5 °F 26.1 °F 85% 30.33 in 10.0 mi South 13.8 mph - N/A   Overcast
10:53 PM 30.9 °F 21.7 °F 27.0 °F 85% 30.34 in 10.0 mi South 11.5 mph - N/A   Overcast
11:53 PM 30.9 °F 20.2 °F 27.0 °F 85% 30.35 in 10.0 mi South 15.0 mph - N/A   Overcast